Weather History for KNFG - March, 2014

Change the Weather History Date:

Monday, March 3, 2014

  Actual Average Record
Temperature  
Mean Temperature 56 °F -  
Max Temperature 68 °F 64 °F 78 °F (2012)
Min Temperature 44 °F 41 °F 33 °F (1997)
Degree Days  
Heating Degree Days 9    
Growing Degree Days 6 (Base 50)    
Moisture  
Dew Point 46 °F    
Average Humidity 83    
Maximum Humidity 93    
Minimum Humidity 63    
Precipitation  
Precipitation 0.00 in - - ()
Sea Level Pressure  
Sea Level Pressure 30.09 in    
Wind  
Wind Speed 1 mph (WSW)    
Max Wind Speed 9 mph    
Max Gust Speed -    
Visibility 5 miles    
Events Fog    
Averages and records for this station are not official NWS values.
T = Trace of Precipitation, MM = Missing Value Source: NWS Daily Summary

Daily Weather History Graph

Daily Weather History Graph

Search for Another Location

Airport or City:

Trip Planner

Search our weather history database for the weather conditions in past years. The results will help you decide how hot, cold, wet, or windy it might be!

Date:

Astronomy

Mar. 03, 2014 Rise Set
Actual Time 6:15 AM PST 5:48 PM PST
Civil Twilight 5:50 AM PST 6:12 PM PST
Nautical Twilight 5:21 AM PST 6:41 PM PST
Astronomical Twilight 4:52 AM PST 7:10 PM PST
Moon 7:36 AM PST (3/3) 8:44 PM PST (3/3)
Length of Visible Light 12h 22m
Length of Day
11h 33m
Waxing Crescent, 8% of the Moon is Illuminated
Mar 3
Waxing Crescent
Mar 8
First Quarter
Mar 16
Full
Mar 23
Last Quarter
Mar 30
New

Hourly Weather History & Observations

Time (PST) Temp. Windchill Dew Point Humidity Pressure Visibility Wind Dir Wind Speed Gust Speed Precip Events Conditions
12:54 AM 48.9 °F - 45.0 °F 86% 30.13 in 7.0 mi Calm Calm - N/A   Clear
1:54 AM 46.9 °F - 44.1 °F 90% 30.12 in 5.0 mi Calm Calm - N/A   Clear
2:08 AM 46.9 °F - 43.0 °F 86% 30.12 in 2.5 mi Calm Calm - N/A   Partly Cloudy
2:23 AM 48.0 °F - 45.0 °F 89% 30.11 in 8.0 mi Calm Calm - N/A   Partly Cloudy
2:30 AM 46.9 °F - 44.1 °F 90% 30.11 in 1.0 mi Calm Calm - N/A   Mist
2:37 AM 46.9 °F - 43.0 °F 86% 30.11 in 0.5 mi Calm Calm - N/A Fog Fog
2:41 AM 46.9 °F - 43.0 °F 86% 30.11 in 1.8 mi Calm Calm - N/A   Clear
2:43 AM 46.9 °F - 43.0 °F 86% 30.12 in 3.0 mi Calm Calm - N/A   Clear
2:47 AM 46.0 °F 44.8 °F 43.0 °F 89% 30.11 in 1.8 mi West 3.5 mph - N/A   Partly Cloudy
2:49 AM 46.4 °F - 42.8 °F 87% 30.11 in 1.0 mi Calm Calm - N/A   Mist
2:54 AM 46.0 °F - 43.0 °F 89% 30.11 in 1.0 mi Calm Calm - N/A   Mist
2:58 AM 46.0 °F - 43.0 °F 89% 30.11 in 1.8 mi Calm Calm - N/A   Partly Cloudy
3:00 AM 46.0 °F - 43.0 °F 89% 30.11 in 3.0 mi Calm Calm - N/A   Partly Cloudy
3:39 AM 45.0 °F - 42.1 °F 90% 30.11 in 1.8 mi Calm Calm - N/A   Clear
3:50 AM 44.6 °F - 41.0 °F 87% 30.10 in 2.5 mi Calm Calm - N/A   Clear
3:54 AM 45.0 °F - 41.0 °F 86% 30.10 in 2.5 mi Calm Calm - N/A   Clear
4:01 AM 44.1 °F - 41.0 °F 89% 30.11 in 1.2 mi Calm Calm - N/A   Partly Cloudy
4:12 AM 45.0 °F - 41.0 °F 86% 30.11 in 2.0 mi Calm Calm - N/A   Mostly Cloudy
4:20 AM 45.0 °F - 42.1 °F 90% 30.11 in 6.0 mi Calm Calm - N/A   Mostly Cloudy
4:54 AM 45.0 °F - 41.0 °F 86% 30.09 in 6.0 mi Calm Calm - N/A   Clear
5:22 AM 45.0 °F - 41.0 °F 86% 30.12 in 2.0 mi Calm Calm - N/A   Scattered Clouds
5:24 AM 45.0 °F - 41.0 °F 86% 30.12 in 1.0 mi Calm Calm - N/A   Mist
5:31 AM 44.1 °F - 41.0 °F 89% 30.12 in 0.2 mi Calm Calm - N/A Fog Fog
5:42 AM 44.1 °F - 39.9 °F 85% 30.12 in 1.5 mi Calm Calm - N/A   Scattered Clouds
5:44 AM 45.0 °F - 41.0 °F 86% 30.12 in 3.0 mi Calm Calm - N/A   Scattered Clouds
5:54 AM 46.0 °F 44.8 °F 42.1 °F 86% 30.11 in 9.0 mi ENE 3.5 mph - N/A   Partly Cloudy
6:54 AM 46.9 °F - 44.1 °F 90% 30.11 in 7.0 mi Calm Calm - N/A   Scattered Clouds
7:54 AM 50.0 °F - 48.0 °F 93% 30.12 in 7.0 mi Calm Calm - N/A   Scattered Clouds
8:54 AM 57.0 °F - 52.0 °F 83% 30.11 in 7.0 mi Calm Calm - N/A   Scattered Clouds
9:54 AM 63.0 °F - 50.0 °F 63% 30.11 in 7.0 mi Variable 4.6 mph - N/A   Scattered Clouds
10:54 AM 64.0 °F - 51.1 °F 63% 30.11 in 7.0 mi Variable 5.8 mph - N/A   Scattered Clouds
11:54 AM 64.9 °F - 54.0 °F 68% 30.08 in 7.0 mi WSW 8.1 mph - N/A   Mostly Cloudy
12:54 PM 68.0 °F - 55.0 °F 63% 30.04 in 7.0 mi SW 9.2 mph - N/A   Mostly Cloudy
1:54 PM 64.9 °F - 53.1 °F 65% 30.04 in 7.0 mi WSW 8.1 mph - N/A   Mostly Cloudy
2:54 PM 66.0 °F - 53.1 °F 63% 30.02 in 7.0 mi SW 6.9 mph - N/A   Mostly Cloudy
3:54 PM 64.0 °F - 54.0 °F 70% 30.01 in 7.0 mi Variable 5.8 mph - N/A   Mostly Cloudy
4:54 PM 62.1 °F - 52.0 °F 70% 30.01 in 8.0 mi SW 4.6 mph - N/A   Mostly Cloudy
5:54 PM 60.1 °F - 51.1 °F 72% 30.02 in 7.0 mi SW 3.5 mph - N/A   Clear
6:54 PM 57.9 °F - 51.1 °F 78% 30.05 in 7.0 mi NNW 3.5 mph - N/A   Clear
7:54 PM 55.9 °F - 51.1 °F 84% 30.07 in 8.0 mi Variable 3.5 mph - N/A   Clear
8:54 PM 54.0 °F - 48.9 °F 83% 30.07 in 7.0 mi Calm Calm - N/A   Clear
9:54 PM 53.1 °F - 48.9 °F 86% 30.06 in 7.0 mi NNE 3.5 mph - N/A   Clear
10:54 PM 53.1 °F - 48.9 °F 86% 30.06 in 6.0 mi Calm Calm - N/A   Scattered Clouds
10:59 PM 53.1 °F - 48.9 °F 86% 30.06 in 6.0 mi Calm Calm - N/A   Mostly Cloudy
11:54 PM 53.1 °F - 48.9 °F 86% 30.07 in 7.0 mi Calm Calm - N/A   Overcast